User: anonymous   Login
Location: Caltech
(34.1382°N, 118.1253°W)
Time: 07:52:57
(UTC-08:00)
Language:

NOSS 3-2 (A) - Orbit

View from above orbital plane
View from above orbital plane
View from above satellite
View from above satellite

Ground track
Ground track

The orbit data is extracted from the following two-line orbital elements,

1 28095U 03054A   18048.78389755 0.00000030  00000-0  39153-4 0    00
2 28095  63.4194  45.1003 0329000 358.0321   1.9679 13.41361155    04
Epoch (UTC): 17 February 2018 18:48:48
Eccentricity: 0.0329000
inclination: 63.4194°
perigee height: 858 km
apogee height: 1350 km
right ascension of ascending node: 45.1003°
argument of perigee: 358.0321°
revolutions per day: 13.41361155
mean anomaly at epoch: 1.9679°
orbit number at epoch: 0

The dashed part of the orbit path shows where the satellite is in the earth's shadow,  

DLR